Overview Statistics Trail Chart Weather Telemetry Raw packets
 

This is the latest recevied weather packets stored in our database for station/object KD4PMP. If no packets are shown the sender has not sent any weather packets the latest 10 day(s).

<< 28 29 30 31 32 33 34 >>
Time Temp. Humidity Pressure Rain* Wind** Luminosity Snow
1788199931 34.44° C 54% 1017.9 hPa 0 mm - - -
1788199324 33.89° C 57% 1018.1 hPa 0 mm - - -
1788198718 33.33° C 58% 1018.3 hPa 0 mm - - -
1788198112 33.33° C 61% 1018.4 hPa 0 mm - - -
1788197505 32.78° C 59% 1018.4 hPa 0 mm - - -
1788196899 32.78° C 60% 1018.5 hPa 0 mm - - -
1788196293 33.33° C 59% 1018.7 hPa 0 mm - - -
1788195686 33.33° C 60% 1018.8 hPa 0 mm - - -
1788195078 32.78° C 62% 1019 hPa 0 mm - - -
1788194472 32.22° C 61% 1019 hPa 0 mm - - -
1788193865 32.22° C 62% 1019 hPa 0 mm - - -
1788193259 32.22° C 63% 1019 hPa 0 mm - - -
1788192653 32.78° C 63% 1019 hPa 0 mm - - -
1788192046 32.78° C 62% 1019 hPa 0 mm - - -
1788191440 32.78° C 64% 1019 hPa 0 mm - - -
1788190834 32.78° C 64% 1019 hPa 0 mm - - -
1788190228 32.78° C 65% 1018.9 hPa 0 mm - - -
1788189621 32.22° C 66% 1019 hPa 0 mm - - -
1788189015 32.22° C 66% 1018.9 hPa 0 mm - - -
1788188406 32.22° C 67% 1018.8 hPa 0 mm - - -
1788187800 31.11° C 71% 1018.8 hPa 0 mm - - -
1788187194 30.56° C 72% 1018.7 hPa 0 mm - - -
1788186587 30° C 74% 1018.8 hPa 0 mm - - -
1788185981 29.44° C 76% 1018.8 hPa 0 mm - - -
1788185375 28.89° C 77% 1018.8 hPa 0 mm - - -

* Rain latest hour (hover to see other rain measurements)
** Current wind speed in m/s (hover to see current wind gust speed)